This is the latest recevied weather packets stored in our database for station/object K0QJ. If no packets are shown the sender has not sent any weather packets the latest 1 day(s).
| Time | Temp. | Humidity | Pressure | Rain* | Wind** | Luminosity | Snow |
|---|---|---|---|---|---|---|---|
| 1778037383 | 10.56° C | 80% | 1012.7 hPa | 0 mm | - | 0 W/m² | - |
| 1778037080 | 10.56° C | 82% | 1012.5 hPa | 0 mm | - | 0 W/m² | - |
| 1778036778 | 10.56° C | 83% | 1012.2 hPa | 0 mm | - | 0 W/m² | - |
| 1778036475 | 10° C | 87% | 1012.2 hPa | 0 mm | - | 0 W/m² | - |
| 1778036172 | 10° C | 90% | 1012.1 hPa | 0 mm | - | 0 W/m² | - |
| 1778035868 | 10° C | 91% | 1011.9 hPa | 0 mm | - | 0 W/m² | - |
| 1778035566 | 10° C | 91% | 1012.2 hPa | 0 mm | - | 0 W/m² | - |
| 1778035262 | 10° C | 91% | 1011.8 hPa | 0 mm | - | 0 W/m² | - |
| 1778034957 | 10° C | 91% | 1011.6 hPa | 0 mm | - | 0 W/m² | - |
| 1778034353 | 10° C | 91% | 1011.8 hPa | 0 mm | - | 0 W/m² | - |
| 1778034050 | 9.44° C | 91% | 1011.7 hPa | 0 mm | - | 0 W/m² | - |
| 1778033142 | 9.44° C | 91% | 1011.7 hPa | 0 mm | - | 0 W/m² | - |
| 1778032839 | 9.44° C | 90% | 1011.3 hPa | 0 mm | - | 0 W/m² | - |
| 1778032537 | 9.44° C | 90% | 1011 hPa | 0 mm | - | 0 W/m² | - |
| 1778031931 | 9.44° C | 89% | 1011.1 hPa | 0 mm | - | 0 W/m² | - |
| 1778031325 | 10° C | 89% | 1010.9 hPa | 0 mm | - | 0 W/m² | - |
| 1778031021 | 10° C | 88% | 1011.1 hPa | 0 mm | - | 0 W/m² | - |
| 1778030112 | 10.56° C | 87% | 1010.8 hPa | 0 mm | - | 0 W/m² | - |
| 1778029508 | 10.56° C | 86% | 1011 hPa | 0 mm | - | 3 W/m² | - |
| 1778028596 | 10.56° C | 86% | 1011 hPa | 0 mm | - | 9 W/m² | - |
| 1778027687 | 11.11° C | 85% | 1010.7 hPa | 0 mm | - | 10 W/m² | - |
| 1778027383 | 10.56° C | 85% | 1011 hPa | 0 mm | - | 11 W/m² | - |
| 1778027079 | 11.11° C | 84% | 1010.9 hPa | 0 mm | - | 16 W/m² | - |
| 1778026774 | 10.56° C | 84% | 1010.6 hPa | 0 mm | - | 18 W/m² | - |
| 1778026472 | 10.56° C | 84% | 1010.3 hPa | 0 mm | - | 26 W/m² | - |
* Rain latest hour (hover to see other rain measurements)
** Current wind speed in m/s (hover to see current wind gust speed)